Weather in Iogach

Russia / Altai Republic     51°47′03″N   87°15′24″E
temp.,
°C
wind,
m/s
gust,
m/s
humid.,
%
clouds,
%
prec.,
mm/h
press.,
hPa
HPBL,
m
20 january, wed
wed2001:00−12wnw0097100 1.0 102140
04:00−12nw0197100 1.8 102254
07:00−12nne0197100 2.9 102432
10:00−12ne0196100 0.3 102423
13:00−8nnw119298 0.3 1023163
16:00−9nnw1298100 0.0 1022131
19:00−10ese1195100 0.0 102421
22:00−9ese1190100 0.0 102321
21 january, thu
thu2101:00−7ese1186100 0.0 102321
04:00−6sse0185100 0.0 102121
07:00−4ese1191100 0.3 102128
10:00−2se1292100 0.1 102048
13:00−1n1196100 0.3 1019133
16:00−2nnw2298100 0.9 1017183
19:00−4n1198100 3.1 101725
22:00−5ese1196100 0.8 101621
22 january, fri
fri2201:00−6se1189100 0.8 101521
04:00−4se1286100 0.0 101227
07:00−6se1184100 0.0 101026
10:00−5se2282100 0.0 101034
13:00−1e1281100 0.0 1006181
16:000nne1188100 0.0 100497
19:00−5w1198100 0.0 100521
22:00−5wnw1198100 1.1 100642
23 january, sat
sat2301:00−5wnw1198100 5.1 101160
04:00−12nnw2596100 2.6 1017389
07:00−14n1297100 3.8 1023126
10:00−15ene1196100 0.5 102891
13:00−12n1191100 0.7 1028326
16:00−14nnw2297100 0.1 1028276
19:00−17nw1199100 0.3 103120
22:00−17e0098100 0.5 103321
24 january, sun
sun2401:00−18ese1196100 0.6 103420
04:00−18se1190100 0.0 103520
07:00−17s2282100 0.0 103625
10:00−15sse3478100 0.0 1037113
13:00−10sw3962100 0.0 10342058
16:00−13nnw2387100 0.0 1034360
19:00−17nw1299100 0.3 103781
22:00−20n1199100 0.5 103929